sat.trackr.live / text

‹ back to catalog

STARLINK-6249

NORAD 56541 · 2023-065AQ

PAYLOAD ACTIVE UNKNOWN

§ Identity

Operator
Country
US
Launch date
2023-05-14
Launch site
AFETR
Launch vehicle
Mass (kg)
RCS (m²)

Purposes: comms

External: N2YO · Heavens-Above · Gunter

§ Orbital elements

Epoch: 2026-05-24T10:28:32.716128Z

Period
94.27 min
Inclination
43.0034°
Eccentricity
0.0001620
Mean motion
15.27570460 rev/d
Perigee alt
482.0 km
Apogee alt
484.2 km
Semi-major
6,861.2 km
B*
2.9349e-5
RAAN
156.0652°
Arg perigee
284.0289°
Mean anomaly
76.0382°
Rev number
16,805

§ Raw data

STARLINK-62491 56541U 23065AQ  26144.43648977  .00000545  00000+0  29349-4 0  99962 56541  43.0034 156.0652 0001620 284.0289  76.0382 15.27570460168057

JSON: /api/v1/satellites/56541 · /tle

For live sub-satellite position, see the globe view (requires WebGL).

§ Visibility from observer

Set your observer location to see the next 7 days of passes ≥ 10°. The values pass through the URL so the page stays shareable.

No JS? Fill the form by hand. The geolocation button needs JavaScript.